Preview of NWS' New Version of Forecast
This preview is not operational and should not be used for support decisions.

Regional Weather Roundup (RWR)

Issued by National Weather Service (NWS)

                            
000
ASUS43 KBIS 231410
RWRND 

NORTH DAKOTA REGIONAL WEATHER ROUNDUP
NATIONAL WEATHER SERVICE BISMARCK ND
800 AM CST SAT FEB 23 2019

NOTE: "FAIR" INDICATES FEW OR NO CLOUDS BELOW 12,000 FEET WITH NO
SIGNIFICANT WEATHER AND/OR OBSTRUCTIONS TO VISIBILITY.


NDZ001>003-009>011-017-231500-
NORTHWEST NORTH DAKOTA
  
CITY           SKY/WX    TMP DP  RH WIND       PRES   REMARKS
WILLISTON      CLEAR     -9 -13  83 S5        29.88S FOG     WCI -20  
MINOT          CLOUDY    -4  -8  83 S3        29.88F FOG              
MINOT AFB      CLOUDY   -12 -18  77 SW6         N/A  WCI -26          
$$
 
NDZ018>021-031>035-040>046-231500-
SOUTHWEST NORTH DAKOTA
  
CITY           SKY/WX    TMP DP  RH WIND       PRES   REMARKS
BISMARCK       FOG       -9 -13  83 CALM      29.93R VSB 1            
DICKINSON      CLEAR      2  -2  83 W6        29.82R WCI  -9          
GARRISON         N/A    -12 -17  78 CALM      29.88S                  
HETTINGER ARPT CLEAR     -1  -4  87 NW5       29.85F WCI -11          
$$
 
NDZ004>008-012>016-024-026-027-054-231500-
NORTHEAST NORTH DAKOTA
  
CITY           SKY/WX    TMP DP  RH WIND       PRES   REMARKS
GRAND FORKS    FLURRIES  14  11  87 NW5       29.95F WCI   6          
GRND FRKS AFB  MOCLDY    12  10  92 NW3       29.95S                  
$$
 
NDZ022-023-025-028>030-036>039-047>053-231500-
SOUTHEAST NORTH DAKOTA
  
CITY           SKY/WX    TMP DP  RH WIND       PRES   REMARKS
FARGO          LGT SNOW  23  20  88 S9        29.94F FOG     WCI  13  
JAMESTOWN      CLOUDY     9   8  96 NW5       29.89F FOG     WCI   1  
$$